Tracking 27112 objects as of 26-Mar-2023
HD Live streaming from Space Station
objects crossing your sky now

STARLINK-2505

Track STARLINK-2505 now!
10-day predictions
STARLINK-2505 is classified as:


NORAD ID: 48411
Int'l Code: 2021-038BL
Perigee: 553.7 km
Apogee: 555.4 km
Inclination: 53.1 °
Period: 95.6 minutes
Semi major axis: 6925 km
RCS: Unknown
Launch date: May 4, 2021
Source: United States (US)
Launch site: AIR FORCE EASTERN TEST RANGE (AFETR)
Your satellite tracking list
Your tracking list is empty




NASA's NSSDC Master Catalog

Two Line Element Set (TLE):
1 48411U 21038BL  23085.49830072  .00012933  00000-0  88676-3 0  9999
2 48411  53.0535  96.2942 0001238  91.0039 269.1092 15.06348056105923
Source of the keplerian elements: AFSPC